Regional Weather Roundup
Issued by NWS

Home | Current Version | Previous Version | Graphics & Text | Print | Product List | Glossary On
Versions: 1 2 3 4 5 6 7 8 9 10 11 12 13 14 15 16 17 18 19 20 21 22 23 24 25 26 27 28 29 30 31 32 33 34 35 36 37 38 39 40 41 42 43 44 45 46 47 48 49 50
000
ASUS43 KLOT 250404
RWRIL

ILLINOIS REGIONAL WEATHER ROUNDUP
NATIONAL WEATHER SERVICE CHICAGO/ROMEOVILLE IL
1100 PM CDT MON JUL 24 2017

NOTE: "FAIR" INDICATES FEW OR NO CLOUDS BELOW 12,000 FEET WITH NO
SIGNIFICANT WEATHER AND/OR OBSTRUCTIONS TO VISIBILITY.

* THESE STATIONS ARE NOT UNDER NWS QUALITY CONTROL. THEY ALSO MAY NOT
  REPORT WEATHER SUCH AS PRECIPITATION OR FOG.

ILZ001-002-007-009-015-016-024-250500-
NORTHWEST ILLINOIS

CITY           SKY/WX    TMP DP  RH WIND       PRES   REMARKS
MOLINE         CLEAR     65  60  84 E5        30.08R
STERLING*      CLEAR     63  61  93 E8        30.10R
SAVANNA*       CLEAR     62  60  94 E3        30.10R
$$

ILZ003-004-008-010-011-017-018-250500-
NORTH CENTRAL ILLINOIS

CITY           SKY/WX    TMP DP  RH WIND       PRES   REMARKS
ROCKFORD       CLEAR     66  59  78 E8        30.12R
FREEPORT*      CLEAR     58  57  96 CALM      30.13R
ROCHELLE*      CLEAR     62  59  90 E5        30.11S
DE KALB*       CLEAR     60  58  93 E6        30.12S
$$

ILZ005-006-012>014-019>023-250500-
NORTHEAST ILLINOIS

CITY           SKY/WX    TMP DP  RH WIND       PRES   REMARKS
CHICAGO-OHARE  PTCLDY    68  59  73 NE7       30.11S
CHICAGO-MIDWAY PTCLDY    69  60  73 NE8       30.11R
AURORA         CLEAR     62  59  90 E6        30.11S
LANSING*       CLEAR     66  60  80 NE5       30.11S
JOLIET*        CLEAR     65  60  82 NE3       30.11S
WAUKEGAN       CLEAR     59  59 100 CALM      30.10F
DUPAGE AIRPORT CLEAR     63  60  90 NE3       30.10S
WHEELING       NOT AVBL
MORRIS*        CLEAR     63  59  87 E3        30.10R
NORTHERLY ISL    N/A     67  60  78 NE2         N/A
$$

LMZ740>746-250500-
SOUTHERN LAKE MICHIGAN

STATION/POSITION SKY/WX   TEMP    WIND        PRES    VSBY  WAVE
                          AIR SEA DIR/SP/G                  HT/PER
                          (F)     (DEG/KT/KT) (MB)    (MI)  (FT/S)
SOUTHERN BUOY              68 70   20/ 12/ 14 1019.3          3/ 6
WILMETTE HARBOR            69 72   50/ 10/ 12   N/A           4/ 6
HARRISON CRIB              69      40/  8/ 11   N/A
BURNHAM HARBOR             67                   N/A
CALUMET HARBOR             68      20/  5/  8 1019.1R
BURNS HARBOR               70      50/ 12/ 13 1020.0R
MICHIGAN CITY              68      80/  8/  9   N/A
MICHIGAN CITY 6N           70 74   50/ 10/ 14   N/A           4/ 7
ST. JOSEPH                 69 73   80/ 10/ 14 1019.5R         4/ 5
$$

ILZ025>027-034>036-040-047-049-050-058-095>099-250500-
WEST-CENTRAL ILLINOIS

CITY           SKY/WX    TMP DP  RH WIND       PRES   REMARKS
QUINCY         CLEAR     71  65  81 E7        30.05R
GALESBURG*     CLEAR     64  62  91 CALM      30.09R
MACOMB*        CLEAR     64  63  97 NE5       30.09S
JACKSONVILLE*  CLEAR     69  65  89 NE3       30.05F
PITTSFIELD*    CLEAR     70  67  91 NE5       30.06S
$$

ILZ028>032-037-038-041>044-048-051>054-059>061-250500-
CENTRAL ILLINOIS

CITY           SKY/WX    TMP DP  RH WIND       PRES   REMARKS
PONTIAC        CLEAR     63  63  97 E7        30.11R
BLOOMINGTON    CLEAR     64  60  87 E8        30.10R
DECATUR        CLEAR     66  63  90 NE7       30.08R
PEORIA         CLEAR     69  63  81 E7        30.08R
LACON*         CLEAR     65  61  87 E6        30.08R
LINCOLN*       CLEAR     68  65  90 E5        30.07S
SPRINGFIELD    MOCLDY    73  67  81 E9        30.06R
TAYLORVILLE    NOT AVBL
$$

ILZ033-039-045-046-055>057-062-063-250500-
EAST-CENTRAL ILLINOIS

CITY           SKY/WX    TMP DP  RH WIND       PRES   REMARKS
CHAMPAIGN      CLEAR     67  61  81 NE9       30.09R
MATTOON        CLEAR     68  66  93 NE6       30.06R
PARIS*         CLEAR     66  64  94 N5        30.09R
$$

ILZ079-100>102-250500-
SOUTHWEST ILLINOIS

CITY           SKY/WX    TMP DP  RH WIND       PRES   REMARKS
ALTON          CLEAR     72  69  92 NE3       30.04R
BELLEVILLE     CLEAR     75  69  82 NE7       30.03R
CAHOKIA*       CLEAR     78  68  71 NE9       30.02R HX  80
SPARTA*        CLEAR     75  69  80 E6        30.02S
$$

ILZ064>066-069>071-074>076-080>082-084>086-088>090-092>094-250500-
SOUTH-CENTRAL ILLINOIS

CITY           SKY/WX    TMP DP  RH WIND       PRES   REMARKS
CARBONDALE     MOCLDY    77  73  87 E5        30.01R
CAIRO*         CLOUDY    78  76  92 CALM      30.00R HX  81
EFFINGHAM*     CLEAR     71  68  88 NE3       30.07R
MARION         MOCLDY    79  72  78 E3        30.02R HX  82
MT. VERNON     CLEAR     74  68  81 NE7       30.03R
CENTRALIA*     CLEAR     74  70  88 NE5       30.03R
SALEM*         CLEAR     75  68  78 NE3       30.04R
METROPOLIS*    PTCLDY    76  73  90 CALM      30.01R
$$

ILZ067-068-072-073-078-083-087-091-250500-
SOUTHEAST ILLINOIS

CITY           SKY/WX    TMP DP  RH WIND       PRES   REMARKS
LAWRENCEVILLE  CLEAR     72  68  87 NE6       30.04R
FLORA*         CLEAR     74  69  83 NE3       30.04S
FAIRFIELD*     CLEAR     72  69  90 N3        30.02S
HARRISBURG*    PTCLDY    76  70  80 NE3       30.02R
ROBINSON*      CLEAR     69  67  93 NE5       30.06R
CARMI*         CLEAR     71  69  93 N5        30.01S
$$

ABBREVIATIONS USED IN REMARKS
   TC - TEMPERATURE IN CELSIUS
  WCI - WIND CHILL INDEX
   HX - HEAT INDEX
  VSB - VISIBILITY
$$





USA.gov is the U.S. government's official web portal to all federal, state and local government web resources and services.